Location: Équennes
(49.7375°N, 1.9622°E)
Time: 01:27:07
(UTC+00:00)

Cosmos 1867 - Pass Details

Date: 28 January 2023
Orbit: 778 x 797 km, 65.0° (Epoch: 31 March)

Event Time Altitude Azimuth Distance (km) Brightness Sun altitude
Rises 17:33:47 0° 319° (NW) 3,311 7.1 -8.8°
Reaches altitude 10° 17:36:13 10° 319° (NW) 2,379 6.4 -9.2°
Maximum altitude 17:41:42 84° 233° (SW) 808 3.7 -10.1°
Drops below altitude 10° 17:47:09 10° 145° (SE) 2,362 5.8 -10.9°
Sets 17:49:34 0° 145° (SE) 3,287 6.6 -11.3°
